Tehachapi, CA

12:55 PM PST on December 06, 2019 (GMT -0800)
Tehachapi Municipal

Weather History for KTSP - October, 2019

Change the Weather History Date:

Tuesday, October 29, 2019

  Actual Average Record
Temperature  
Mean Temperature 46 °F -  
Max Temperature 57 °F 63 °F 82 °F (2017)
Min Temperature 35 °F 37 °F 30 °F (2011)
Degree Days  
Heating Degree Days 19    
Moisture  
Dew Point 16 °F    
Average Humidity 32    
Maximum Humidity 45    
Minimum Humidity 13    
Precipitation  
Precipitation 0.00 in - - ()
Sea Level Pressure  
Sea Level Pressure 29.98 in    
Wind  
Wind Speed 11 mph ()    
Max Wind Speed 24 mph    
Max Gust Speed 30 mph    
Visibility 8.3 miles    
Events      
Averages and records for this station are not official NWS values.
T = Trace of Precipitation, MM = Missing Value Source: Averaged Metar Reports

Daily Weather History Graph

Daily Weather History Graph

Search for Another Location

Airport or City:

Astronomy

Oct. 29, 2019 Rise Set
Actual Time 7:12 AM PDT 6:02 PM PDT
Civil Twilight 6:45 AM PDT 6:28 PM PDT
Nautical Twilight 6:16 AM PDT 6:58 PM PDT
Astronomical Twilight 5:46 AM PDT 7:27 PM PDT
Moon 8:49 AM PDT (10/29) 7:33 PM PDT (10/29)
Length of Visible Light 11h 42m
Length of Day
10h 50m
Waxing Crescent, 4% of the Moon is Illuminated
Oct 29
Waxing Crescent
Nov 4
First Quarter
Nov 12
Full
Nov 19
Last Quarter
Nov 26
New

Hourly Weather History & Observations

Time (PDT) Temp. Windchill Dew Point Humidity Pressure Visibility Wind Dir Wind Speed Gust Speed Precip Events Conditions
12:15 AM 44.6 °F 38.1 °F 17.6 °F 34% 30.00 in 10.0 mi West 13.8 mph - N/A   Clear
12:35 AM 42.8 °F 36.6 °F 17.6 °F 36% 30.01 in 9.0 mi West 11.5 mph - N/A   Clear
12:55 AM 42.8 °F 36.6 °F 17.6 °F 36% 30.00 in 9.0 mi WNW 11.5 mph - N/A   Clear
1:15 AM 44.6 °F 38.1 °F 17.6 °F 34% 30.00 in 9.0 mi WNW 13.8 mph - N/A   Clear
1:35 AM 44.6 °F 37.8 °F 17.6 °F 34% 30.00 in 8.0 mi WNW 15.0 mph - N/A   Clear
1:55 AM 44.6 °F 37.8 °F 17.6 °F 34% 30.00 in 10.0 mi NW 15.0 mph - N/A   Clear
2:15 AM 44.6 °F 39.2 °F 17.6 °F 34% 30.00 in 9.0 mi WNW 10.4 mph - N/A   Clear
2:35 AM 42.8 °F 37.0 °F 17.6 °F 36% 29.99 in 9.0 mi WNW 10.4 mph - N/A   Clear
2:55 AM 41.0 °F 35.8 °F 17.6 °F 39% 29.99 in 9.0 mi NW 8.1 mph - N/A   Clear
3:15 AM 41.0 °F 35.2 °F 17.6 °F 39% 29.98 in 10.0 mi WNW 9.2 mph - N/A   Clear
3:35 AM 41.0 °F 34.7 °F 17.6 °F 39% 29.97 in 9.0 mi NW 10.4 mph - N/A   Clear
3:55 AM 41.0 °F 34.7 °F 17.6 °F 39% 29.96 in 10.0 mi NW 10.4 mph - N/A   Clear
4:15 AM 41.0 °F 34.7 °F 17.6 °F 39% 29.96 in 9.0 mi NW 10.4 mph - N/A   Clear
4:35 AM 39.2 °F 33.0 °F 17.6 °F 42% 29.96 in 9.0 mi NW 9.2 mph - N/A   Clear
4:55 AM 41.0 °F 34.7 °F 17.6 °F 39% 29.95 in 9.0 mi NW 10.4 mph - N/A   Clear
5:15 AM 41.0 °F 35.2 °F 17.6 °F 39% 29.95 in 9.0 mi NW 9.2 mph - N/A   Clear
5:35 AM 41.0 °F 35.2 °F 17.6 °F 39% 29.94 in 9.0 mi WNW 9.2 mph - N/A   Clear
5:55 AM 42.8 °F 36.6 °F 17.6 °F 36% 29.94 in 10.0 mi NW 11.5 mph - N/A   Clear
6:15 AM 41.0 °F 33.9 °F 19.4 °F 42% 29.94 in 9.0 mi WNW 12.7 mph - N/A   Clear
6:35 AM 41.0 °F 34.7 °F 19.4 °F 42% 29.95 in 9.0 mi WNW 10.4 mph - N/A   Clear
6:55 AM 41.0 °F 34.3 °F 19.4 °F 42% 29.95 in 8.0 mi WNW 11.5 mph - N/A   Clear
7:15 AM 39.2 °F 32.0 °F 19.4 °F 45% 29.94 in 7.0 mi WNW 11.5 mph - N/A   Clear
7:35 AM 41.0 °F 34.3 °F 21.2 °F 45% 29.94 in 7.0 mi WNW 11.5 mph - N/A   Clear
7:55 AM 42.8 °F 36.6 °F 21.2 °F 42% 29.95 in 6.0 mi WNW 11.5 mph - N/A   Haze
8:15 AM 44.6 °F 38.4 °F 21.2 °F 39% 29.95 in 7.0 mi WNW 12.7 mph - N/A   Clear
8:35 AM 46.4 °F 41.5 °F 23.0 °F 40% 29.96 in 7.0 mi WNW 10.4 mph - N/A   Clear
8:55 AM 46.4 °F 40.7 °F 21.2 °F 37% 29.96 in 6.0 mi NW 12.7 mph - N/A   Haze
9:15 AM 48.2 °F - 21.2 °F 34% 29.96 in 7.0 mi WNW 10.4 mph - N/A   Clear
9:35 AM 50.0 °F - 21.2 °F 32% 29.96 in 5.0 mi NW 10.4 mph - N/A   Haze
9:55 AM 50.0 °F - 19.4 °F 30% 29.96 in 7.0 mi NW 13.8 mph - N/A   Clear
10:15 AM 51.8 °F - 17.6 °F 26% 29.96 in 7.0 mi NW 15.0 mph 19.6 mph N/A   Clear
10:35 AM 53.6 °F - 17.6 °F 24% 29.96 in 7.0 mi NW 13.8 mph 20.7 mph N/A   Clear
10:55 AM 53.6 °F - 19.4 °F 26% 29.96 in 8.0 mi NW 15.0 mph 19.6 mph N/A   Clear
11:15 AM 53.6 °F - 19.4 °F 26% 29.96 in 6.0 mi NW 16.1 mph 23.0 mph N/A   Haze
11:35 AM 57.2 °F - 15.8 °F 20% 29.95 in 6.0 mi NW 17.3 mph 26.5 mph N/A   Haze
11:55 AM 55.4 °F - 15.8 °F 21% 29.95 in 8.0 mi NW 16.1 mph 27.6 mph N/A   Clear
12:15 PM 57.2 °F - 14.0 °F 18% 29.95 in 8.0 mi NW 19.6 mph 28.8 mph N/A   Clear
12:35 PM 57.2 °F - 14.0 °F 18% 29.94 in 7.0 mi WNW 20.7 mph - N/A   Clear
12:55 PM 57.2 °F - 14.0 °F 18% 29.93 in 6.0 mi NW 23.0 mph 28.8 mph N/A   Haze
1:15 PM 57.2 °F - 14.0 °F 18% 29.93 in 7.0 mi WNW 19.6 mph 25.3 mph N/A   Clear
1:55 PM 57.2 °F - 6.8 °F 13% 29.91 in 9.0 mi WNW 24.2 mph 29.9 mph N/A   Clear
2:15 PM 57.2 °F - 8.6 °F 14% 29.91 in 8.0 mi WNW 20.7 mph 28.8 mph N/A   Clear
2:35 PM 57.2 °F - 14.0 °F 18% 29.92 in 7.0 mi NW 19.6 mph 26.5 mph N/A   Clear
2:55 PM 57.2 °F - 14.0 °F 18% 29.92 in 6.0 mi NW 18.4 mph 25.3 mph N/A   Haze
3:15 PM 57.2 °F - 15.8 °F 20% 29.92 in 7.0 mi NW 18.4 mph 26.5 mph N/A   Clear
3:35 PM 55.4 °F - 15.8 °F 21% 29.93 in 7.0 mi WNW 20.7 mph 26.5 mph N/A   Clear
3:55 PM 55.4 °F - 15.8 °F 21% 29.93 in 7.0 mi WNW 21.9 mph 25.3 mph N/A   Clear
4:15 PM 55.4 °F - 15.8 °F 21% 29.93 in 8.0 mi WNW 16.1 mph 26.5 mph N/A   Clear
4:35 PM 55.4 °F - 17.6 °F 23% 29.95 in 7.0 mi NW 15.0 mph 23.0 mph N/A   Clear
4:55 PM 53.6 °F - 17.6 °F 24% 29.95 in 8.0 mi NW 15.0 mph - N/A   Clear
5:15 PM 51.8 °F - 17.6 °F 26% 29.95 in 8.0 mi NW 12.7 mph - N/A   Clear
5:35 PM 50.0 °F - 19.4 °F 30% 29.96 in 8.0 mi NW 9.2 mph - N/A   Clear
5:55 PM 48.2 °F - 19.4 °F 32% 29.97 in 7.0 mi NNW 6.9 mph - N/A   Clear
6:15 PM 46.4 °F 44.3 °F 19.4 °F 34% 29.98 in 7.0 mi WNW 4.6 mph - N/A   Clear
6:35 PM 44.6 °F 42.2 °F 17.6 °F 34% 29.98 in 9.0 mi West 4.6 mph - N/A   Clear
6:55 PM 44.6 °F - 19.4 °F 37% 29.99 in 9.0 mi Calm Calm - N/A   Clear
7:15 PM 42.8 °F - 17.6 °F 36% 30.00 in 9.0 mi Calm Calm - N/A   Clear
7:35 PM 39.2 °F - 17.6 °F 42% 30.01 in 8.0 mi Calm Calm - N/A   Clear
7:55 PM 37.4 °F 33.8 °F 17.6 °F 45% 30.01 in 9.0 mi East 4.6 mph - N/A   Clear
8:15 PM 37.4 °F 31.4 °F 14.0 °F 38% 30.02 in 10.0 mi ESE 8.1 mph - N/A   Clear
8:35 PM 35.6 °F 30.7 °F 14.0 °F 41% 30.02 in 10.0 mi ESE 5.8 mph - N/A   Clear
8:55 PM 35.6 °F 32.8 °F 15.8 °F 44% 30.03 in 9.0 mi East 3.5 mph - N/A   Clear
9:15 PM 35.6 °F 29.2 °F 15.8 °F 44% 30.03 in 9.0 mi SE 8.1 mph - N/A   Clear
9:35 PM 35.6 °F 28.0 °F 15.8 °F 44% 30.04 in 10.0 mi SE 10.4 mph - N/A   Clear
9:55 PM 35.6 °F 28.6 °F 14.0 °F 41% 30.05 in 10.0 mi SE 9.2 mph - N/A   Clear
10:15 PM 37.4 °F 29.8 °F 14.0 °F 38% 30.06 in 10.0 mi SE 11.5 mph - N/A   Clear
10:35 PM 41.0 °F 33.9 °F 8.6 °F 26% 30.07 in 10.0 mi SE 12.7 mph - N/A   Clear
10:55 PM 41.0 °F 34.3 °F 6.8 °F 24% 30.07 in 10.0 mi SE 11.5 mph - N/A   Clear
11:15 PM 41.0 °F 34.7 °F 5.0 °F 23% 30.08 in 10.0 mi SE 10.4 mph - N/A   Clear
11:35 PM 41.0 °F 34.3 °F 5.0 °F 23% 30.08 in 10.0 mi ESE 11.5 mph - N/A   Clear
11:55 PM 44.6 °F 39.2 °F 1.4 °F 17% 30.09 in 10.0 mi ESE 10.4 mph - N/A   Clear